This is the latest recevied weather packets stored in our database for station/object W5LND-10. If no packets are shown the sender has not sent any weather packets the latest 10 day(s).
| Time | Temp. | Humidity | Pressure | Rain* | Wind** | Luminosity | Snow |
|---|---|---|---|---|---|---|---|
| 1777727479 | 12.22° C | 83% | 1022 hPa | 0 mm | - | 125 W/m² | - |
| 1777727179 | 12.22° C | 84% | 1022 hPa | 0 mm | - | 113 W/m² | - |
| 1777726879 | 12.22° C | 84% | 1021.9 hPa | 0 mm | - | 100 W/m² | - |
| 1777726579 | 12.22° C | 84% | 1021.8 hPa | 0 mm | - | 193 W/m² | - |
| 1777726279 | 12.22° C | 84% | 1021.9 hPa | 0 mm | - | 70 W/m² | - |
| 1777725979 | 11.67° C | 84% | 1021.8 hPa | 0 mm | - | 107 W/m² | - |
| 1777725679 | 11.67° C | 84% | 1021.8 hPa | 0 mm | - | 113 W/m² | - |
| 1777725379 | 11.67° C | 84% | 1021.6 hPa | 0 mm | - | 25 W/m² | - |
| 1777725079 | 11.67° C | 84% | 1021.6 hPa | 0 mm | - | 28 W/m² | - |
| 1777724779 | 11.67° C | 83% | 1021.6 hPa | 0 mm | - | 30 W/m² | - |
| 1777724479 | 11.67° C | 83% | 1021.4 hPa | 0 mm | - | 37 W/m² | - |
| 1777724179 | 11.67° C | 83% | 1021.4 hPa | 0 mm | - | 26 W/m² | - |
| 1777723879 | 11.67° C | 83% | 1021.4 hPa | 0 mm | - | 9 W/m² | - |
| 1777723579 | 11.67° C | 83% | 1021.3 hPa | 0 mm | - | 7 W/m² | - |
| 1777723279 | 11.67° C | 83% | 1021.2 hPa | 0 mm | - | 5 W/m² | - |
| 1777722979 | 11.67° C | 83% | 1021.2 hPa | 0 mm | - | 0 W/m² | - |
| 1777722679 | 11.67° C | 82% | 1021.2 hPa | 0 mm | - | 0 W/m² | - |
| 1777722383 | 11.67° C | 82% | 1021 hPa | 0 mm | - | 0 W/m² | - |
| 1777722079 | 11.67° C | 82% | 1020.9 hPa | 0 mm | - | 0 W/m² | - |
| 1777721779 | 11.67° C | 82% | 1020.9 hPa | 0 mm | - | 0 W/m² | - |
| 1777721479 | 11.67° C | 82% | 1020.9 hPa | 0 mm | - | 0 W/m² | - |
| 1777721179 | 11.67° C | 82% | 1021 hPa | 0 mm | - | 0 W/m² | - |
| 1777720879 | 11.67° C | 82% | 1020.8 hPa | 0 mm | - | 0 W/m² | - |
| 1777720579 | 11.67° C | 81% | 1020.8 hPa | 0 mm | - | 0 W/m² | - |
| 1777720279 | 11.67° C | 81% | 1020.8 hPa | 0 mm | - | 0 W/m² | - |
* Rain latest hour (hover to see other rain measurements)
** Current wind speed in m/s (hover to see current wind gust speed)